This demonstration page uses our WeatherBlox Daily Observations layout. Learn more.

Left ArrowRight Arrow

Hourly Observations for August 20, 2015

Temp ( °F °C ) Dew Point ( °F °C ) Humidity (%) Winds ( mph kmh ) Pressure ( in mb ) Visibility ( mi km ) Precip ( " mm )
12:53 am 00:53 Clear 68 20 51 10.6 55 55 ENE 10 17 29.93 1014 10 16 0.00 0.00
1:53 am 01:53 Cloudy 68 20 50 10 53 53 ENE 13 20 29.92 1013 10 16 0.00 0.00
2:53 am 02:53 Cloudy 68 20 50 10 53 53 E 12 19 29.92 1013 10 16 0.00 0.00
3:53 am 03:53 Cloudy 67 19.4 50 10 55 55 E 7 11 29.93 1014 10 16 0.00 0.00
4:53 am 04:53 Cloudy 66 18.9 50 10 56 56 E 6 9 29.93 1014 10 16 0.00 0.00
5:53 am 05:53 Cloudy 66 18.9 50 10 56 56 E 6 9 29.94 1014 10 16 0.00 0.00
6:53 am 06:53 Cloudy 66 18.9 50 10 56 56 E 6 9 29.95 1014 10 16 0.00 0.00
7:41 am 07:41 Cloudy 66 19 50 10 56 56 ENE 7 11 30.00 1016 10 16 0.00 0.00
7:53 am 07:53 Cloudy 67 19.4 50 10 55 55 E 6 9 29.96 1015 10 16 0.00 0.00
8:20 am 08:20 Cloudy 66 19 52 11 60 60 E 7 11 30.00 1016 10 16 0.00 0.00
8:53 am 08:53 Partly Cloudy 68 20 52 11.1 57 57 ESE 9 15 29.97 1015 10 16 0.00 0.00
9:05 am 09:05 Mostly Cloudy 69 20.6 52 11.1 55 55 ESE 10 17 29.97 1015 10 16 0.00 0.00
9:53 am 09:53 Cloudy 70 21.1 53 11.7 55 55 SE 8 13 29.96 1015 10 16 0.00 0.00
10:34 am 10:34 Mostly Sunny 73 23 55 13 53 53 SE 7 11 29.91 1013 10 16 0.00 0.00
10:53 am 10:53 Sunny 74 23.3 55 12.8 52 52 VRB 6 9 29.95 1014 10 16 0.00 0.00
11:53 am 11:53 Sunny 76 24.4 56 13.3 50 50 Calm 29.93 1014 10 16 0.00 0.00
12:53 pm 12:53 Sunny 80 26.7 58 14.4 47 47 S 6 9 29.90 1012 10 16 0.00 0.00
1:53 pm 13:53 Sunny 83 28.3 58 14.4 43 43 Calm 29.86 1011 10 16 0.00 0.00
2:53 pm 14:53 Sunny 87 30.6 59 15 39 39 W 5 7 29.82 1010 10 16 0.00 0.00
3:53 pm 15:53 Sunny 91 32.8 59 15 34 34 S 8 13 29.79 1009 10 16 0.00 0.00
4:53 pm 16:53 Sunny 92 33.3 59 15 33 33 undefined N/A 29.75 1008 10 16 0.00 0.00
5:53 pm 17:53 Sunny 94 34.4 58 14.4 30 30 SE 8 13 29.73 1007 10 16 0.00 0.00
6:53 pm 18:53 Sunny 93 33.9 58 14.4 31 31 SE 7 11 29.72 1006 10 16 0.00 0.00
7:53 pm 19:53 Sunny 91 32.8 58 14.4 33 33 ESE 12 19 29.73 1007 10 16 0.00 0.00
8:53 pm 20:53 Clear 89 31.7 58 14.4 35 35 ESE 8 13 29.73 1007 10 16 0.00 0.00
9:53 pm 21:53 Clear 89 31.7 60 15.6 38 38 SE 13 20 29.75 1008 10 16 0.00 0.00
10:53 pm 22:53 Clear 88 31.1 61 16.1 40 40 SSE 16 26 29.76 1008 10 16 0.00 0.00
11:53 pm 23:53 Clear 82 27.8 66 18.9 58 58 SE 24 39 29.79 1009 10 16 0.00 0.00

Powered by AerisWeather